[[{"header":{"parameterUnit":"m.s-1","parameterCategory":2,"la1":30.2991,"la2":30.254,"lo1":-89.0895,"lo2":-89.0444,"dy":0.0017,"dx":0.0017,"nx":28,"ny":28,"refTime":"2026-02-08T09:00:00:Z","depth":"0","parameterNumber":2,"parameterNumberName":"U-component_of_CURRENTS"},"data":[0,0,0,0,0,0,0,0,0,0,0,0,0,0,0,0,0,0,0,0,0,0,0,0,0,0,0,0,0,0,0,0,0,0,0,0,0,0,0,0,0,0,0,0,0,0,0,0,0,0,0,0,0,0,0,0,0,0,0.188,0.1879,0,0.1764,0.1762,0.1761,0.1581,0.1577,0.1574,0.1571,0.1468,0.1469,0.1469,0,0,0,0,0,0,0,0,0,0,0,0,0,0.2034,0.2032,0.1881,0.1879,0.1877,0.1764,0.1762,0.1761,0.1581,0.1577,0.1573,0.1569,0.1468,0.1469,0.1469,0,0,0,0,0,0,0,0,0,0,0,0,0,0.1948,0.2031,0.1881,0.1773,0.1762,0.1764,0.1762,0.176,0.1582,0.1577,0.1572,0.1567,0.1468,0.1469,0.1469,0.1573,0,0,0.1471,0.1471,0,0,0,0,0,0,0,0,0.1953,0.1943,0.1791,0.1781,0.1768,0.1681,0.1779,0.1698,0.1583,0.1652,0.1571,0.1565,0.1544,0.1538,0.1528,0.1568,0.1564,0.1471,0.1471,0.1472,0.1472,0,0,0,0,0,0,0,0.1959,0.1947,0.1835,0.1789,0.1776,0.176,0.1742,0.1763,0.1629,0.1645,0.1632,0.1619,0.1537,0.1528,0.1525,0.1562,0.1471,0.1471,0.1472,0.1472,0.164,0.1644,0,0,0,0,0,0,0.1972,0.1953,0.1839,0.1832,0.1849,0.1761,0.1741,0.1715,0.1627,0.1609,0.1623,0.1611,0.153,0.1524,0.152,0.155,0.1472,0.1472,0.1472,0.1636,0.1641,0.1645,0,0,0,0,0,0,0.1976,0.1963,0.1844,0.189,0.1873,0.1763,0.1736,0.1715,0.1701,0.161,0.159,0.1628,0.1525,0.152,0.1535,0.1548,0.1472,0.1473,0.1631,0.1637,0.1643,0.1667,0,0,0,0,0,0,0.1981,0.1965,0.197,0.189,0.187,0.186,0.174,0.1716,0.17,0.1682,0.161,0.1594,0.1521,0.1535,0.1536,0.1547,0.1473,0.1626,0.1634,0.1641,0.1661,0.1673,0.1684,0,0,0,0,0,0.1987,0.1994,0.1971,0.1958,0.1874,0.1862,0.1853,0.1759,0.1706,0.1724,0.1662,0.1596,0.1584,0.154,0.1539,0.155,0.1622,0.1632,0.1641,0.1656,0.1671,0.1683,0,0,0,0,0,0,0.2066,0.1975,0.1947,0.1928,0.1912,0.1831,0.1831,0.1792,0.1762,0.1735,0.165,0.1634,0.1652,0.1638,0.159,0.1634,0.1596,0.1605,0.1607,0.1621,0.1632,0.1596,0.1474,0,0,0,0,0,0.2094,0.2063,0.201,0.2001,0.1995,0.1933,0.1922,0.1868,0.1823,0.1801,0.175,0.1715,0.1703,0.1685,0.1682,0.1719,0.1731,0.1735,0.1747,0.1755,0.1735,0.1801,0.1814,0.1676,0.1676,0.1676,0,0,0.2112,0.2069,0.2045,0.2017,0.1985,0.1955,0.1912,0.1902,0.1859,0.1806,0.1756,0.1765,0.1731,0.1738,0.1748,0.1713,0.1814,0.1767,0.1773,0.1748,0.1811,0.1824,0.1835,0.1682,0.1681,0.168,0,0,0.2118,0.2113,0.2077,0.2068,0.2039,0.2006,0.2016,0.1966,0.1931,0.1926,0.1866,0.1889,0.1869,0.1831,0.1812,0.1911,0.1884,0.193,0.1928,0.1993,0.2003,0.2012,0.2075,0.2089,0.1917,0.1917,0.1917,0,0.2131,0.2086,0.2081,0.2051,0.2025,0.2027,0.199,0.1976,0.1935,0.1922,0.1911,0.1912,0.1897,0.1883,0.1899,0.1925,0.1964,0.1859,0.2001,0.201,0.2018,0.2081,0.2096,0.192,0.1919,0.1919,0.1919,0,0.2092,0.207,0.2065,0.2,0.1998,0.1987,0.1957,0.1966,0.1949,0.1923,0.1949,0.196,0.1949,0.1973,0.1947,0.2006,0.2019,0.2015,0.1945,0.2032,0.2095,0.211,0.1923,0.1922,0.1921,0.1921,0,0,0.2025,0.2026,0.2013,0.1987,0.1968,0.1949,0.1928,0.1906,0.1881,0.191,0.1891,0.1921,0.1964,0.1952,0.197,0.2021,0.2132,0.2039,0.2042,0.2065,0.2287,0.2266,0.228,0.2152,0.2155,0.2156,0.2316,0,0.1974,0.1926,0.1932,0.1876,0.1846,0.186,0.1832,0.1825,0.1838,0.1844,0.1898,0.1908,0.1942,0.1962,0.2026,0.2104,0.2169,0.2089,0.2231,0.2235,0.2174,0.2296,0.2314,0.2454,0.233,0.2333,0.2334,0,0.1889,0.1873,0.1821,0.1802,0.1789,0.1758,0.1732,0.1717,0.175,0.177,0.1825,0.1873,0.1957,0.1986,0.2159,0.2111,0.2201,0.2267,0.2275,0.2244,0.2241,0.2347,0.2485,0.2421,0.2357,0.2355,0.2354,0,0.1809,0.1778,0.1741,0.1728,0.1713,0.1688,0.168,0.1688,0.168,0.1739,0.1763,0.187,0.1931,0.2069,0.2214,0.2203,0.2406,0.2405,0.2472,0.2472,0.2505,0.2503,0.2556,0.2532,0.2531,0.2531,0.253,0,0.1728,0.1684,0.1702,0.1671,0.161,0.1626,0.1579,0.1593,0.1627,0.1632,0.1732,0.1776,0.1959,0.209,0.2225,0.24,0.2427,0.249,0.2517,0.252,0.2518,0.2473,0.2403,0.2537,0.2535,0.2534,0.2533,0,0.1625,0.1647,0.159,0.1579,0.1569,0.1518,0.1504,0.1485,0.1541,0.1561,0.1586,0.1728,0.1911,0.2084,0.231,0.2405,0.2528,0.2617,0.2604,0.2624,0.2607,0.2537,0.2506,0.2471,0.2734,0.2735,0.2735,0,0.1569,0.1537,0.1508,0.1463,0.1448,0.14,0.137,0.1421,0.1424,0.153,0.1545,0.1717,0.1845,0.2163,0.2386,0.2631,0.2544,0.2739,0.2709,0.2618,0.2563,0.2426,0.2388,0.2793,0.2794,0.2795,0.2795,0,0.1443,0.144,0.14,0.1325,0.1278,0.1242,0.1226,0.1232,0.1315,0.1373,0.1488,0.1606,0.1924,0.2179,0.2466,0.2634,0.2623,0.2757,0.2689,0.2628,0.2461,0.2435,0.2663,0.2802,0.2801,0.2801,0.28,0.28,0.1331,0.128,0.1236,0.115,0.1111,0.1086,0.1063,0.1107,0.115,0.1263,0.1406,0.1599,0.1953,0.2383,0.2525,0.276,0.2664,0.2777,0.2713,0.2592,0.2502,0.2722,0.2855,0.2855,0.2855,0.2855,0.2854,0,0.117,0.1136,0.1057,0.0977,0.0913,0.0941,0.0957,0.0974,0.1041,0.1211,0.1341,0.1707,0.2024,0.234,0.271,0.273,0.2683,0.2681,0.252,0.2499,0.2761,0.2707,0.2781,0.2781,0.2781,0.2782,0.2782,0.2782,0.1081,0.0976,0.0947,0.0799,0.0761,0.0723,0.0741,0.0817,0.0945,0.117,0.1377,0.154,0.1934,0.2386,0.2634,0.2631,0.2471,0.2394,0.2316,0.2525,0.2529,0.2532,0.2468,0.249,0.249,0.206,0.2056,0.2053]},{"header":{"parameterUnit":"m.s-1","parameterCategory":2,"la1":30.2991,"la2":30.254,"lo1":-89.0895,"lo2":-89.0444,"dy":0.0017,"dx":0.0017,"nx":28,"ny":28,"refTime":"2026-02-08T09:00:00:Z","depth":"0","parameterNumber":3,"parameterNumberName":"V-component_of_CURRENTS"},"data":[0,0,0,0,0,0,0,0,0,0,0,0,0,0,0,0,0,0,0,0,0,0,0,0,0,0,0,0,0,0,0,0,0,0,0,0,0,0,0,0,0,0,0,0,0,0,0,0,0,0,0,0,0,0,0,0,0,0,-0.044,-0.044,0,-0.0485,-0.0486,-0.0486,-0.053,-0.053,-0.0531,-0.0531,-0.0627,-0.0629,-0.0631,0,0,0,0,0,0,0,0,0,0,0,0,0,-0.0474,-0.0473,-0.044,-0.044,-0.0441,-0.0485,-0.0486,-0.0487,-0.053,-0.053,-0.0531,-0.0531,-0.0626,-0.0629,-0.0632,0,0,0,0,0,0,0,0,0,0,0,0,0,-0.0484,-0.0472,-0.044,-0.0467,-0.047,-0.0485,-0.0486,-0.0487,-0.053,-0.053,-0.0531,-0.0532,-0.0626,-0.0629,-0.0632,-0.0638,0,0,-0.0642,-0.0643,0,0,0,0,0,0,0,0,-0.0483,-0.0483,-0.0463,-0.0465,-0.0468,-0.0501,-0.0533,-0.054,-0.053,-0.0508,-0.0531,-0.0532,-0.0589,-0.0595,-0.0603,-0.0643,-0.0647,-0.0642,-0.0644,-0.0645,-0.0646,0,0,0,0,0,0,0,-0.0483,-0.0482,-0.0459,-0.0463,-0.0466,-0.0505,-0.0507,-0.0535,-0.0546,-0.051,-0.0513,-0.0516,-0.0591,-0.06,-0.0606,-0.0648,-0.0642,-0.0645,-0.0647,-0.0648,-0.0625,-0.0622,0,0,0,0,0,0,-0.0469,-0.048,-0.0458,-0.046,-0.0476,-0.0503,-0.0505,-0.0491,-0.0545,-0.0553,-0.0515,-0.0518,-0.0594,-0.0602,-0.0609,-0.0569,-0.0645,-0.0648,-0.065,-0.0627,-0.0624,-0.0622,0,0,0,0,0,0,-0.0469,-0.0466,-0.0456,-0.0472,-0.0473,-0.0501,-0.0486,-0.0492,-0.05,-0.0548,-0.0557,-0.0517,-0.0595,-0.0605,-0.0617,-0.0575,-0.065,-0.0653,-0.063,-0.0626,-0.0623,-0.0522,0,0,0,0,0,0,-0.047,-0.0465,-0.0452,-0.047,-0.0472,-0.0459,-0.0485,-0.0492,-0.05,-0.0504,-0.0553,-0.0562,-0.0596,-0.0612,-0.062,-0.0581,-0.0655,-0.0634,-0.0629,-0.0624,-0.0528,-0.0515,-0.0504,0,0,0,0,0,-0.0471,-0.0459,-0.045,-0.0448,-0.0451,-0.0459,-0.0463,-0.0488,-0.0499,-0.0499,-0.0521,-0.0561,-0.0586,-0.0613,-0.0623,-0.0584,-0.0636,-0.063,-0.0625,-0.0534,-0.0518,-0.0504,0,0,0,0,0,0,-0.0486,-0.0462,-0.0454,-0.0439,-0.0441,-0.0466,-0.0473,-0.0481,-0.0498,-0.0503,-0.0546,-0.0556,-0.0544,-0.0576,-0.0604,-0.0558,-0.0611,-0.0607,-0.0538,-0.0523,-0.0511,-0.0498,-0.0658,0,0,0,0,0,-0.0474,-0.0453,-0.0442,-0.0437,-0.043,-0.0446,-0.0452,-0.0462,-0.0479,-0.0488,-0.0515,-0.0531,-0.0527,-0.0537,-0.0549,-0.054,-0.0558,-0.0513,-0.0501,-0.049,-0.0483,-0.0447,-0.0431,-0.0603,-0.0603,-0.0603,0,0,-0.049,-0.0468,-0.0464,-0.0437,-0.0444,-0.0436,-0.0452,-0.0457,-0.0448,-0.0496,-0.0495,-0.0496,-0.0514,-0.0491,-0.0488,-0.0517,-0.0454,-0.0483,-0.0474,-0.0473,-0.0439,-0.0423,-0.0408,-0.0599,-0.06,-0.06,0,0,-0.0516,-0.0477,-0.047,-0.0455,-0.0442,-0.0435,-0.043,-0.0434,-0.0429,-0.0423,-0.0433,-0.04,-0.0433,-0.0408,-0.0406,-0.0332,-0.0387,-0.0337,-0.0272,-0.0236,-0.0222,-0.021,-0.0229,-0.0219,-0.0334,-0.0334,-0.0333,0,-0.0545,-0.0508,-0.0477,-0.0462,-0.0445,-0.043,-0.0419,-0.0408,-0.0416,-0.0384,-0.0414,-0.0361,-0.0383,-0.031,-0.0285,-0.0302,-0.0318,-0.0332,-0.0221,-0.0209,-0.0198,-0.0221,-0.0211,-0.0328,-0.0329,-0.0329,-0.033,0,-0.0557,-0.0526,-0.0522,-0.0478,-0.0456,-0.0444,-0.0407,-0.0376,-0.0358,-0.0335,-0.0259,-0.0258,-0.022,-0.0208,-0.0237,-0.0147,-0.0196,-0.0209,-0.0262,-0.0175,-0.0204,-0.0196,-0.032,-0.0322,-0.0324,-0.0325,0,0,-0.063,-0.0547,-0.0545,-0.0501,-0.0452,-0.0427,-0.0383,-0.0315,-0.0248,-0.023,-0.0141,-0.0111,-0.0081,-0.0074,-0.0069,-0.0039,0.0013,-0.0096,-0.0097,-0.0123,0.0049,0.0001,0.0004,0.0014,0.0017,0.0019,-0.0009,0,-0.0653,-0.0607,-0.056,-0.0507,-0.0467,-0.0404,-0.0348,-0.0278,-0.0215,-0.0122,-0.0063,0.0008,-0.0037,0.0005,0.0033,0.0028,0.0041,0.0019,-0.0026,-0.0028,-0.0085,0.0016,0.0051,0.0029,-0.0002,-0.0001,-0.0,0,-0.0669,-0.0622,-0.0577,-0.0454,-0.043,-0.0394,-0.0249,-0.0198,-0.0061,-0.0007,0.0087,0.0126,0.0201,0.0148,0.0173,0.0155,0.0105,0.0087,0.0085,0.0012,-0.0058,-0.0058,0.0043,-0.0061,0.0011,0.0011,0.001,0,-0.0691,-0.0618,-0.0566,-0.0535,-0.0417,-0.0364,-0.0292,-0.0159,-0.0062,0.0078,0.0164,0.0245,0.0301,0.028,0.0224,0.0201,0.0231,0.0195,0.0103,0.0096,0.0104,0.0095,0.0099,0.0209,0.0209,0.0209,0.0209,0,-0.0699,-0.0651,-0.0565,-0.0531,-0.0419,-0.0351,-0.021,-0.0122,0.0031,0.0172,0.0225,0.0342,0.0336,0.0352,0.0275,0.0214,0.0265,0.0133,0.0108,0.0137,0.0131,0.002,-0.0103,0.0208,0.0208,0.0209,0.0209,0,-0.0708,-0.067,-0.0586,-0.0473,-0.0424,-0.034,-0.0154,-0.003,0.0075,0.0259,0.0308,0.0426,0.044,0.0401,0.037,0.0281,0.0151,0.0179,0.0184,0.0161,-0.003,-0.0149,-0.0199,-0.0282,0.0087,0.0086,0.0085,0,-0.0699,-0.0666,-0.0545,-0.046,-0.0401,-0.0266,-0.014,-0.001,0.0127,0.0314,0.0418,0.048,0.0559,0.0485,0.0361,0.0235,0.0112,0.015,0.0126,-0.0015,-0.0165,-0.0209,-0.0279,0.0163,0.0163,0.0163,0.0163,0,-0.0658,-0.063,-0.0549,-0.0393,-0.0266,-0.0105,0.0062,0.016,0.0323,0.0448,0.0607,0.0669,0.061,0.0558,0.0375,0.026,0.0055,0.014,0.0032,-0.0071,-0.0151,-0.0251,0.0104,0.0162,0.0162,0.0162,0.0162,0.0162,-0.061,-0.0542,-0.0433,-0.0271,-0.0127,0.006,0.0194,0.0345,0.0525,0.0714,0.0739,0.0852,0.0762,0.0544,0.0344,0.0053,-0.0,-0.0019,-0.0147,-0.017,-0.0257,0.006,0.0066,0.0065,0.0065,0.0065,0.0064,0,-0.0512,-0.0427,-0.0289,-0.0093,0.0082,0.0139,0.0359,0.0479,0.0657,0.08,0.0916,0.1001,0.0815,0.0577,0.024,-0.0083,-0.0229,-0.0294,-0.0323,-0.038,-0.0037,-0.0038,-0.0097,-0.0097,-0.0097,-0.0097,-0.0097,-0.0097,-0.0444,-0.0301,-0.0229,0.007,0.0211,0.0435,0.0554,0.0679,0.0803,0.0997,0.1123,0.1209,0.1159,0.0491,-0.0022,-0.0245,-0.053,-0.0639,-0.0792,-0.0539,-0.0521,-0.0504,-0.0525,-0.0686,-0.0687,-0.1019,-0.1023,-0.1026]}],[{"header":{"parameterUnit":"m.s-1","parameterCategory":2,"la1":30.2991,"la2":30.254,"lo1":-89.0895,"lo2":-89.0444,"dy":0.0017,"dx":0.0017,"nx":28,"ny":28,"refTime":"2026-02-08T09:00:00:Z","depth":"2","parameterNumber":2,"parameterNumberName":"U-component_of_CURRENTS"},"data":[0,0,0,0,0,0,0,0,0,0,0,0,0,0,0,0,0,0,0,0,0,0,0,0,0,0,0,0,0,0,0,0,0,0,0,0,0,0,0,0,0,0,0,0,0,0,0,0,0,0,0,0,0,0,0,0,0,0,0.1339,0.1339,0,0.1331,0.1331,0.133,0.1275,0.1274,0.1273,0.1272,0.1354,0.1357,0.136,0,0,0,0,0,0,0,0,0,0,0,0,0,0.1336,0.1336,0.1339,0.1339,0.134,0.1331,0.1331,0.133,0.1275,0.1274,0.1273,0.1272,0.1353,0.1356,0.136,0,0,0,0,0,0,0,0,0,0,0,0,0,0.1329,0.1336,0.1339,0.1315,0.1313,0.1331,0.1331,0.133,0.1275,0.1274,0.1273,0.1271,0.1352,0.1356,0.136,0.1415,0,0,0.1374,0.1376,0,0,0,0,0,0,0,0,0.1329,0.1328,0.1318,0.1317,0.1315,0.1307,0.136,0.1365,0.1276,0.1284,0.1272,0.1271,0.1351,0.1355,0.1348,0.1419,0.1422,0.1375,0.1377,0.1379,0.1381,0,0,0,0,0,0,0,0.133,0.1329,0.1331,0.1319,0.1317,0.1315,0.1312,0.136,0.1323,0.1283,0.1281,0.1288,0.135,0.1344,0.135,0.1423,0.1374,0.1378,0.1381,0.1383,0.1576,0.1578,0,0,0,0,0,0,0.1341,0.1329,0.1331,0.1331,0.1325,0.1317,0.1313,0.1307,0.132,0.1322,0.1289,0.1286,0.1337,0.1345,0.1353,0.1453,0.1379,0.1383,0.1386,0.1573,0.1576,0.1579,0,0,0,0,0,0,0.1341,0.1341,0.1332,0.1335,0.1334,0.1318,0.1312,0.1307,0.1323,0.1325,0.1327,0.1312,0.1336,0.1347,0.1405,0.1454,0.1385,0.139,0.157,0.1574,0.1577,0.1631,0,0,0,0,0,0,0.134,0.134,0.1361,0.1335,0.1334,0.1345,0.1314,0.1308,0.1331,0.1326,0.1346,0.135,0.1336,0.1398,0.1409,0.1459,0.1393,0.1567,0.1572,0.1576,0.1626,0.1636,0.1644,0,0,0,0,0,0.134,0.1348,0.1362,0.1363,0.1356,0.1346,0.1345,0.1327,0.1334,0.1337,0.1356,0.135,0.1435,0.1404,0.1417,0.1469,0.1565,0.1571,0.1576,0.1622,0.1634,0.1644,0,0,0,0,0,0,0.1354,0.1343,0.1357,0.1363,0.1367,0.1339,0.1351,0.1354,0.1371,0.1382,0.1382,0.1388,0.1458,0.1464,0.143,0.1538,0.1501,0.1509,0.1532,0.1543,0.1552,0.1531,0.1397,0,0,0,0,0,0.1375,0.1378,0.1374,0.1386,0.1391,0.1388,0.1395,0.1386,0.1392,0.1397,0.1419,0.1451,0.149,0.1515,0.1545,0.1613,0.1601,0.1656,0.1665,0.1672,0.1665,0.1688,0.1698,0.1596,0.1596,0.1596,0,0,0.1384,0.1385,0.1387,0.1392,0.1395,0.1401,0.1386,0.1399,0.1416,0.1412,0.146,0.1492,0.1517,0.1575,0.1609,0.1587,0.1699,0.1679,0.1685,0.1674,0.1695,0.1704,0.1712,0.16,0.16,0.1599,0,0,0.1385,0.1408,0.1406,0.1415,0.1434,0.1433,0.1449,0.1452,0.1466,0.1518,0.1525,0.1579,0.1641,0.1656,0.1675,0.1763,0.1749,0.1792,0.182,0.1844,0.1851,0.1858,0.1862,0.1868,0.1793,0.1793,0.1793,0,0.1399,0.1398,0.1408,0.1413,0.1429,0.1454,0.1461,0.1483,0.1511,0.1541,0.1541,0.1645,0.1672,0.1738,0.1761,0.1783,0.1785,0.1772,0.1852,0.1859,0.1864,0.1867,0.1873,0.1797,0.1796,0.1796,0.1796,0,0.1383,0.1406,0.1409,0.1425,0.1447,0.1459,0.1491,0.1534,0.1576,0.1597,0.1685,0.1719,0.1772,0.1807,0.181,0.1883,0.1869,0.1861,0.1816,0.1877,0.1877,0.1882,0.1801,0.18,0.1799,0.1798,0,0,0.1327,0.1385,0.1385,0.1413,0.1457,0.1465,0.1526,0.1572,0.1617,0.1676,0.173,0.1812,0.1842,0.1865,0.1895,0.1921,0.1972,0.1913,0.1913,0.19,0.2015,0.1906,0.1901,0.198,0.1981,0.1982,0.2,0,0.1308,0.133,0.1365,0.1403,0.1418,0.1481,0.153,0.1591,0.165,0.1714,0.178,0.1843,0.1862,0.19,0.1935,0.1966,0.1989,0.1967,0.1971,0.197,0.1852,0.1904,0.1731,0.1723,0.2005,0.2005,0.2006,0,0.126,0.1289,0.1321,0.1405,0.1417,0.1453,0.1544,0.1594,0.1695,0.1742,0.182,0.187,0.1946,0.1942,0.2013,0.2001,0.2014,0.2025,0.2026,0.1903,0.187,0.1709,0.1722,0.2015,0.2014,0.2013,0.2013,0,0.1192,0.1254,0.1287,0.131,0.1403,0.1447,0.1506,0.1605,0.1659,0.1764,0.1809,0.19,0.1951,0.1989,0.2035,0.2029,0.2088,0.2077,0.1987,0.1979,0.1819,0.1793,0.2113,0.2112,0.2112,0.2112,0.2112,0,0.1139,0.1163,0.1265,0.1278,0.1336,0.1416,0.1488,0.1561,0.1662,0.1734,0.1822,0.1885,0.1967,0.202,0.2043,0.203,0.2097,0.1991,0.1978,0.1834,0.1811,0.2049,0.2042,0.2113,0.2113,0.2113,0.2113,0,0.1056,0.1116,0.1163,0.1269,0.1305,0.1351,0.1475,0.1535,0.1625,0.172,0.1758,0.188,0.1952,0.201,0.2072,0.2024,0.203,0.2008,0.1823,0.1786,0.19,0.1896,0.1894,0.1891,0.1888,0.1885,0.1883,0,0.1014,0.1031,0.1144,0.1193,0.1247,0.1329,0.1397,0.1505,0.1572,0.172,0.1765,0.1866,0.1936,0.1962,0.1905,0.1889,0.1989,0.1695,0.164,0.1891,0.1879,0.188,0.1879,0.1461,0.1456,0.1452,0.1448,0,0.0951,0.1001,0.1058,0.1154,0.1232,0.1301,0.1405,0.1436,0.1575,0.1642,0.1747,0.1809,0.1837,0.1741,0.1694,0.1657,0.1677,0.1599,0.1927,0.1532,0.148,0.147,0.1484,0.1408,0.1412,0.1415,0.1417,0.1419,0.0923,0.0958,0.1054,0.1143,0.1217,0.1279,0.1314,0.1403,0.1469,0.1522,0.163,0.1627,0.1606,0.1432,0.1393,0.1327,0.1431,0.1341,0.1357,0.1376,0.1312,0.1256,0.1129,0.1132,0.1134,0.1135,0.1137,0,0.0915,0.0978,0.105,0.1152,0.1209,0.1261,0.1333,0.1341,0.1382,0.1378,0.1408,0.1217,0.1144,0.1169,0.0999,0.095,0.0957,0.0918,0.0935,0.0972,0.1005,0.0925,0.0639,0.0638,0.0637,0.0637,0,0,0.0925,0.0998,0.1042,0.1132,0.1194,0.1239,0.1261,0.1244,0.1227,0.1101,0.1021,0.1016,0.1087,0.0837,0.0792,0.072,0.085,0.0674,0.1062,0.1118,0.1152,0.1221,0.1133,0,0,0,0,0]},{"header":{"parameterUnit":"m.s-1","parameterCategory":2,"la1":30.2991,"la2":30.254,"lo1":-89.0895,"lo2":-89.0444,"dy":0.0017,"dx":0.0017,"nx":28,"ny":28,"refTime":"2026-02-08T09:00:00:Z","depth":"2","parameterNumber":3,"parameterNumberName":"V-component_of_CURRENTS"},"data":[0,0,0,0,0,0,0,0,0,0,0,0,0,0,0,0,0,0,0,0,0,0,0,0,0,0,0,0,0,0,0,0,0,0,0,0,0,0,0,0,0,0,0,0,0,0,0,0,0,0,0,0,0,0,0,0,0,0,-0.0143,-0.0143,0,-0.0142,-0.0142,-0.0142,-0.013,-0.013,-0.0129,-0.0129,-0.022,-0.0222,-0.0225,0,0,0,0,0,0,0,0,0,0,0,0,0,-0.0178,-0.0177,-0.0143,-0.0143,-0.0143,-0.0142,-0.0142,-0.0142,-0.013,-0.013,-0.0129,-0.0129,-0.0219,-0.0222,-0.0225,0,0,0,0,0,0,0,0,0,0,0,0,0,-0.0169,-0.0177,-0.0143,-0.0137,-0.0136,-0.0142,-0.0142,-0.0142,-0.013,-0.013,-0.0129,-0.0129,-0.0218,-0.0222,-0.0226,-0.0262,0,0,-0.0238,-0.024,0,0,0,0,0,0,0,0,-0.017,-0.0168,-0.0138,-0.0137,-0.0136,-0.0135,-0.0188,-0.0187,-0.013,-0.0133,-0.0129,-0.0128,-0.02,-0.0205,-0.0206,-0.0266,-0.027,-0.0239,-0.0241,-0.0243,-0.0244,0,0,0,0,0,0,0,-0.017,-0.0168,-0.0144,-0.0138,-0.0137,-0.0148,-0.0146,-0.0187,-0.0172,-0.0133,-0.0132,-0.0131,-0.02,-0.0202,-0.0208,-0.0271,-0.0238,-0.0242,-0.0245,-0.0246,-0.0391,-0.0392,0,0,0,0,0,0,-0.0167,-0.0168,-0.0144,-0.0143,-0.0151,-0.0148,-0.0145,-0.0137,-0.0169,-0.0173,-0.0131,-0.013,-0.0195,-0.0203,-0.0212,-0.0264,-0.0243,-0.0247,-0.0249,-0.039,-0.0391,-0.0393,0,0,0,0,0,0,-0.0168,-0.0165,-0.0144,-0.0156,-0.0154,-0.0147,-0.0138,-0.0137,-0.0147,-0.0167,-0.0172,-0.0143,-0.0195,-0.0206,-0.0255,-0.0268,-0.0249,-0.0252,-0.0388,-0.039,-0.0392,-0.0366,0,0,0,0,0,0,-0.0169,-0.0165,-0.0174,-0.0155,-0.0153,-0.0158,-0.0138,-0.0137,-0.0146,-0.0145,-0.018,-0.0186,-0.0195,-0.0248,-0.0259,-0.0273,-0.0255,-0.0386,-0.0389,-0.0391,-0.0365,-0.0367,-0.0368,0,0,0,0,0,-0.017,-0.0177,-0.0174,-0.0172,-0.0159,-0.0159,-0.016,-0.0154,-0.0148,-0.016,-0.0178,-0.0186,-0.0272,-0.0253,-0.0265,-0.028,-0.0385,-0.0388,-0.0391,-0.0364,-0.0366,-0.0368,0,0,0,0,0,0,-0.0209,-0.0176,-0.0172,-0.0173,-0.0173,-0.0157,-0.0171,-0.0164,-0.0186,-0.0192,-0.0205,-0.0214,-0.0264,-0.0284,-0.0262,-0.0333,-0.033,-0.0336,-0.0306,-0.0308,-0.031,-0.0263,-0.0259,0,0,0,0,0,-0.0219,-0.0208,-0.0191,-0.0197,-0.0197,-0.0188,-0.0193,-0.0187,-0.0195,-0.0203,-0.0226,-0.0256,-0.0286,-0.0304,-0.0342,-0.0382,-0.038,-0.0402,-0.0404,-0.0405,-0.0377,-0.0397,-0.0397,-0.0403,-0.0403,-0.0403,0,0,-0.0234,-0.0218,-0.0213,-0.0204,-0.0204,-0.0192,-0.019,-0.0199,-0.0191,-0.0214,-0.0235,-0.0272,-0.0302,-0.034,-0.0364,-0.0356,-0.0406,-0.0409,-0.0409,-0.038,-0.04,-0.0399,-0.0398,-0.0405,-0.0405,-0.0404,0,0,-0.024,-0.0249,-0.0231,-0.0228,-0.0226,-0.022,-0.0224,-0.0222,-0.0228,-0.0254,-0.0265,-0.0301,-0.0357,-0.0364,-0.0376,-0.0414,-0.0421,-0.0444,-0.0405,-0.0426,-0.0424,-0.0422,-0.0424,-0.0423,-0.0436,-0.0436,-0.0436,0,-0.0258,-0.0227,-0.0234,-0.0216,-0.0208,-0.0228,-0.0207,-0.022,-0.0236,-0.0239,-0.0263,-0.0319,-0.0357,-0.0366,-0.0376,-0.0414,-0.0421,-0.0389,-0.0423,-0.0422,-0.0421,-0.0423,-0.0422,-0.0435,-0.0435,-0.0435,-0.0436,0,-0.0228,-0.0218,-0.0216,-0.0186,-0.0191,-0.0187,-0.0192,-0.0211,-0.023,-0.0231,-0.0268,-0.0316,-0.0332,-0.0368,-0.038,-0.0394,-0.0401,-0.0427,-0.0406,-0.0418,-0.0421,-0.042,-0.0434,-0.0434,-0.0435,-0.0435,0,0,-0.0206,-0.0191,-0.0186,-0.0169,-0.017,-0.0164,-0.0172,-0.0167,-0.0156,-0.0207,-0.0191,-0.0257,-0.0277,-0.0292,-0.0326,-0.0346,-0.0359,-0.0376,-0.0378,-0.0355,-0.039,-0.0384,-0.0383,-0.0393,-0.0393,-0.0393,-0.0395,0,-0.017,-0.0127,-0.013,-0.01,-0.0078,-0.0103,-0.0097,-0.0108,-0.0132,-0.0136,-0.0186,-0.0197,-0.0249,-0.0256,-0.0287,-0.0342,-0.0355,-0.0354,-0.04,-0.0401,-0.0377,-0.0382,-0.0388,-0.039,-0.0395,-0.0394,-0.0394,0,-0.0109,-0.0092,-0.0052,-0.0036,-0.0029,-0.0021,-0.0012,-0.0012,-0.0032,-0.0048,-0.0071,-0.0106,-0.0134,-0.0186,-0.0257,-0.0255,-0.0308,-0.0355,-0.0358,-0.0351,-0.0394,-0.0382,-0.0388,-0.0393,-0.0393,-0.0393,-0.0393,0,-0.0053,-0.0027,0.0006,0.0012,0.0019,0.0027,0.0027,0.0016,0.0026,0.0015,0.0024,-0.0024,-0.0038,-0.0117,-0.021,-0.0233,-0.0289,-0.0338,-0.0376,-0.0376,-0.0386,-0.0387,-0.0374,-0.0374,-0.0374,-0.0374,-0.0374,0,0.0013,0.0038,0.0032,0.0052,0.0086,0.0074,0.0109,0.0099,0.0103,0.013,0.0078,0.0087,-0.0023,-0.0072,-0.0171,-0.0258,-0.0257,-0.0351,-0.0373,-0.038,-0.038,-0.0388,-0.039,-0.0375,-0.0375,-0.0375,-0.0374,0,0.0068,0.0074,0.0102,0.0106,0.0115,0.0133,0.0159,0.0187,0.0183,0.0217,0.0223,0.0179,0.012,0.0017,-0.01,-0.0193,-0.0289,-0.0318,-0.0304,-0.0325,-0.0372,-0.0373,-0.0363,-0.0362,-0.0362,-0.0362,-0.0362,0,0.01,0.0121,0.0133,0.016,0.0162,0.0193,0.0225,0.0226,0.0253,0.027,0.0289,0.0259,0.0239,0.0083,-0.0079,-0.0218,-0.0251,-0.0315,-0.0365,-0.0346,-0.0369,-0.037,-0.0371,-0.0374,-0.0374,-0.0374,-0.0374,0,0.0138,0.0135,0.0154,0.021,0.0244,0.0283,0.0319,0.0344,0.0356,0.0398,0.0424,0.0416,0.0279,0.0124,-0.006,-0.0168,-0.0297,-0.0319,-0.0302,-0.0373,-0.0357,-0.038,-0.0381,-0.0374,-0.0374,-0.0374,-0.0374,-0.0374,0.015,0.0172,0.0203,0.0257,0.0306,0.0354,0.0388,0.0436,0.0487,0.0522,0.0509,0.0484,0.0301,0.0048,-0.0095,-0.0255,-0.0275,-0.0362,-0.0363,-0.0363,-0.0361,-0.0344,-0.0358,-0.0358,-0.0358,-0.0358,-0.0358,0,0.0177,0.0213,0.026,0.0316,0.0371,0.0395,0.0449,0.0492,0.0563,0.0573,0.0607,0.0418,0.0252,0.0067,-0.0176,-0.0318,-0.0334,-0.0355,-0.0363,-0.0364,-0.0364,-0.0362,-0.036,-0.0359,-0.0359,-0.0359,0,0,0.0196,0.0249,0.0276,0.0362,0.0411,0.0487,0.0518,0.0588,0.0612,0.0607,0.0563,0.0497,0.0261,0.0082,-0.0108,-0.0227,-0.0251,-0.0243,-0.0236,-0.0225,-0.0222,-0.0373,-0.0371,0,0,0,0,0]}],[{"header":{"parameterUnit":"m.s-1","parameterCategory":2,"la1":30.2991,"la2":30.254,"lo1":-89.0895,"lo2":-89.0444,"dy":0.0017,"dx":0.0017,"nx":28,"ny":28,"refTime":"2026-02-08T09:00:00:Z","depth":"4","parameterNumber":2,"parameterNumberName":"U-component_of_CURRENTS"},"data":[0,0,0,0,0,0,0,0,0,0,0,0,0,0,0,0,0,0,0,0,0,0,0,0,0,0,0,0,0,0,0,0,0,0,0,0,0,0,0,0,0,0,0,0,0,0,0,0,0,0,0,0,0,0,0,0,0,0,0.0407,0.0408,0,0.0457,0.0457,0.0458,0.0501,0.0501,0.0502,0.0503,0.0481,0.048,0.0478,0,0,0,0,0,0,0,0,0,0,0,0,0,0.0321,0.0322,0.0407,0.0408,0.0409,0.0457,0.0457,0.0458,0.05,0.0501,0.0502,0.0503,0.0481,0.048,0.0478,0,0,0,0,0,0,0,0,0,0,0,0,0,0.036,0.0323,0.0406,0.0438,0.0442,0.0457,0.0457,0.0458,0.05,0.0501,0.0503,0.0504,0.0482,0.048,0.0478,0.0442,0,0,0.0472,0.0471,0,0,0,0,0,0,0,0,0.0358,0.0363,0.0433,0.0436,0.044,0.0477,0.0419,0.045,0.05,0.0474,0.0503,0.0504,0.0474,0.0473,0.0476,0.0441,0.044,0.0472,0.0471,0.047,0.0469,0,0,0,0,0,0,0,0.0355,0.0361,0.0423,0.0434,0.0438,0.0441,0.0448,0.0425,0.0463,0.0477,0.0481,0.0491,0.0475,0.0478,0.0476,0.044,0.0472,0.047,0.0469,0.0468,0.0469,0.047,0,0,0,0,0,0,0.0356,0.0359,0.0422,0.0425,0.0405,0.0442,0.0449,0.0461,0.0465,0.0468,0.049,0.0493,0.0481,0.0478,0.0475,0.0497,0.047,0.0468,0.0467,0.0467,0.0469,0.047,0,0,0,0,0,0,0.0354,0.0361,0.042,0.0395,0.0404,0.0443,0.0455,0.0461,0.0476,0.0477,0.0478,0.0501,0.0481,0.0478,0.0471,0.0494,0.0467,0.0465,0.0466,0.0468,0.0469,0.0499,0,0,0,0,0,0,0.0351,0.036,0.0365,0.0396,0.0405,0.0428,0.0455,0.0462,0.0482,0.0486,0.0485,0.0485,0.0482,0.0475,0.047,0.0491,0.0464,0.0464,0.0467,0.0469,0.0496,0.0501,0.0506,0,0,0,0,0,0.0348,0.0353,0.0365,0.0373,0.0412,0.0428,0.0432,0.0462,0.0481,0.048,0.0492,0.0485,0.0487,0.0473,0.0467,0.0488,0.0463,0.0466,0.0469,0.0494,0.0501,0.0506,0,0,0,0,0,0,0.0309,0.0359,0.0373,0.039,0.0407,0.0437,0.0448,0.0462,0.0471,0.0483,0.0481,0.048,0.0485,0.0481,0.0466,0.0499,0.0481,0.0482,0.0502,0.0508,0.0513,0.0513,0.0462,0,0,0,0,0,0.0304,0.0328,0.0361,0.0372,0.0388,0.0417,0.0428,0.0447,0.0463,0.047,0.0475,0.0486,0.0488,0.0494,0.0488,0.0492,0.0483,0.051,0.0515,0.0519,0.0518,0.0526,0.0531,0.0479,0.0479,0.0479,0,0,0.029,0.0322,0.0333,0.0367,0.0391,0.0414,0.0427,0.0449,0.0471,0.0462,0.0491,0.0488,0.049,0.0504,0.0509,0.0507,0.0529,0.0522,0.0525,0.0522,0.0529,0.0534,0.0538,0.0481,0.048,0.048,0,0,0.0283,0.0307,0.033,0.0351,0.0391,0.041,0.0418,0.0453,0.0473,0.0489,0.0499,0.051,0.0514,0.0529,0.0534,0.0558,0.0544,0.0566,0.0597,0.0606,0.061,0.0613,0.0606,0.0609,0.058,0.058,0.058,0,0.0271,0.0303,0.0332,0.0363,0.0387,0.0412,0.0437,0.0456,0.0483,0.05,0.0504,0.0528,0.053,0.055,0.0574,0.0567,0.0564,0.0573,0.0611,0.0614,0.0617,0.0609,0.0611,0.0582,0.0582,0.0582,0.0582,0,0.0283,0.0312,0.0328,0.0384,0.0403,0.0426,0.0464,0.0485,0.0514,0.0536,0.0558,0.0559,0.0579,0.0589,0.0591,0.0621,0.0608,0.0604,0.0592,0.0623,0.0614,0.0615,0.0585,0.0584,0.0583,0.0583,0,0,0.0261,0.0327,0.0336,0.0364,0.042,0.0437,0.0479,0.0519,0.0549,0.0571,0.0602,0.0621,0.0626,0.0632,0.0634,0.065,0.0673,0.0646,0.0646,0.0632,0.0683,0.0644,0.0642,0.0677,0.0677,0.0678,0.0667,0,0.027,0.0322,0.0356,0.0401,0.0432,0.0471,0.0507,0.0544,0.0576,0.0609,0.0622,0.0646,0.0642,0.0656,0.067,0.0662,0.068,0.0676,0.0661,0.0661,0.0616,0.0644,0.068,0.0668,0.0668,0.0668,0.0669,0,0.028,0.0317,0.0363,0.0422,0.0441,0.0468,0.053,0.0568,0.0619,0.0643,0.0668,0.0674,0.0695,0.0692,0.0694,0.0692,0.0699,0.0693,0.0693,0.0646,0.0625,0.0632,0.0672,0.0671,0.0671,0.0671,0.0671,0,0.0253,0.0323,0.0359,0.038,0.0449,0.0477,0.0521,0.058,0.0615,0.0672,0.0696,0.0705,0.0723,0.0717,0.0719,0.071,0.0719,0.0702,0.067,0.0666,0.069,0.0686,0.072,0.072,0.072,0.072,0.072,0,0.0252,0.028,0.035,0.0366,0.0409,0.0474,0.0528,0.0567,0.063,0.0672,0.0715,0.073,0.0736,0.0741,0.0727,0.0701,0.0727,0.0674,0.0665,0.0703,0.0701,0.069,0.0687,0.072,0.072,0.072,0.072,0,0.0213,0.0263,0.0299,0.037,0.0395,0.0431,0.0523,0.0563,0.0635,0.0687,0.0708,0.0753,0.0757,0.0754,0.0748,0.0715,0.0691,0.0688,0.0728,0.072,0.0625,0.0624,0.0621,0.0619,0.0618,0.0617,0.0616,0,0.0197,0.0216,0.0281,0.0318,0.0352,0.0423,0.0471,0.0549,0.0589,0.069,0.0699,0.0743,0.0764,0.0717,0.0717,0.0679,0.0681,0.0664,0.0641,0.0626,0.0617,0.0617,0.0617,0.0614,0.0614,0.0614,0.0614,0,0.016,0.0184,0.0216,0.0283,0.0335,0.0393,0.0465,0.0476,0.0577,0.0639,0.0679,0.0693,0.0706,0.0683,0.068,0.0651,0.0659,0.0651,0.0653,0.0631,0.0618,0.0611,0.0612,0.0609,0.061,0.061,0.0611,0,0.013,0.0142,0.0194,0.0257,0.0318,0.0359,0.0395,0.0455,0.0496,0.0596,0.0604,0.066,0.0703,0.067,0.0656,0.0632,0.0606,0.0576,0.0581,0.0586,0.0578,0.0557,0.0523,0,0,0,0,0,0.0109,0.0135,0.0179,0.0238,0.0297,0.0335,0.0397,0.0437,0.0506,0.0518,0.0563,0.0578,0.0585,0.0601,0.0562,0.0609,0.0591,0.056,0.0555,0.0587,0.0592,0.0586,0,0,0,0,0,0,0.0102,0.0137,0.0162,0.0217,0.0259,0.0311,0.0346,0.0391,0.0399,0.0474,0.0473,0.0541,0.0539,0.06,0.0554,0.0555,0.0538,0.0588,0.0586,0.0584,0.0589,0.0592,0.0588,0,0,0,0,0]},{"header":{"parameterUnit":"m.s-1","parameterCategory":2,"la1":30.2991,"la2":30.254,"lo1":-89.0895,"lo2":-89.0444,"dy":0.0017,"dx":0.0017,"nx":28,"ny":28,"refTime":"2026-02-08T09:00:00:Z","depth":"4","parameterNumber":3,"parameterNumberName":"V-component_of_CURRENTS"},"data":[0,0,0,0,0,0,0,0,0,0,0,0,0,0,0,0,0,0,0,0,0,0,0,0,0,0,0,0,0,0,0,0,0,0,0,0,0,0,0,0,0,0,0,0,0,0,0,0,0,0,0,0,0,0,0,0,0,0,0.0094,0.0094,0,0.0071,0.0071,0.0071,0.0053,0.0053,0.0052,0.0052,0.007,0.0071,0.0072,0,0,0,0,0,0,0,0,0,0,0,0,0,0.0106,0.0106,0.0094,0.0093,0.0093,0.0071,0.0071,0.0071,0.0053,0.0053,0.0052,0.0052,0.007,0.0071,0.0072,0,0,0,0,0,0,0,0,0,0,0,0,0,0.0095,0.0106,0.0094,0.0081,0.0079,0.0071,0.0071,0.0071,0.0053,0.0053,0.0052,0.0052,0.007,0.0071,0.0072,0.0088,0,0,0.0075,0.0076,0,0,0,0,0,0,0,0,0.0095,0.0095,0.0083,0.0081,0.008,0.0063,0.0082,0.0078,0.0053,0.0064,0.0052,0.0052,0.0071,0.0072,0.007,0.0089,0.009,0.0076,0.0076,0.0077,0.0077,0,0,0,0,0,0,0,0.0096,0.0095,0.0086,0.0083,0.0081,0.007,0.0068,0.0081,0.0072,0.0063,0.0062,0.0057,0.0071,0.0069,0.0071,0.009,0.0075,0.0077,0.0077,0.0078,0.0082,0.0082,0,0,0,0,0,0,0.0098,0.0096,0.0087,0.0085,0.0085,0.007,0.0068,0.007,0.0071,0.007,0.0058,0.0056,0.0067,0.0069,0.0071,0.0066,0.0077,0.0078,0.0078,0.0083,0.0082,0.0082,0,0,0,0,0,0,0.0098,0.0098,0.0088,0.0089,0.0087,0.007,0.0073,0.007,0.0067,0.0066,0.0066,0.0057,0.0067,0.007,0.0073,0.0067,0.0078,0.0079,0.0083,0.0083,0.0082,0.0071,0,0,0,0,0,0,0.0099,0.0098,0.0102,0.0089,0.0087,0.0087,0.0073,0.007,0.0064,0.0062,0.0066,0.0067,0.0067,0.0071,0.0074,0.0069,0.008,0.0084,0.0083,0.0082,0.0072,0.0069,0.0068,0,0,0,0,0,0.0099,0.0112,0.0103,0.0102,0.0093,0.0087,0.0085,0.0073,0.0064,0.0067,0.006,0.0066,0.0066,0.0072,0.0075,0.0071,0.0085,0.0083,0.0082,0.0073,0.007,0.0068,0,0,0,0,0,0,0.0126,0.011,0.0101,0.0109,0.0098,0.0084,0.0084,0.0075,0.0071,0.0069,0.0066,0.0067,0.0065,0.007,0.0076,0.0066,0.0074,0.0073,0.0066,0.0063,0.0061,0.0057,0.0081,0,0,0,0,0,0.0132,0.0134,0.0116,0.0124,0.0116,0.0099,0.0096,0.0087,0.0079,0.0077,0.0074,0.0069,0.0063,0.0065,0.0065,0.0069,0.0057,0.0064,0.0062,0.0061,0.0059,0.0022,0.0016,0.0077,0.0077,0.0077,0,0,0.0145,0.0136,0.0138,0.0129,0.0117,0.011,0.0097,0.0093,0.0086,0.0081,0.0075,0.0067,0.0062,0.0056,0.0056,0.0061,0.0038,0.0059,0.0058,0.0057,0.002,0.0014,0.0008,0.0077,0.0077,0.0077,0,0,0.0165,0.0162,0.0162,0.0153,0.0135,0.0125,0.0123,0.0106,0.0096,0.0092,0.0075,0.0058,0.0066,0.0046,0.004,0.0028,0.0028,0.0033,0.0024,-0.0012,-0.0017,-0.0022,-0.0039,-0.0045,0.0033,0.0033,0.0033,0,0.0181,0.0175,0.0164,0.0157,0.0148,0.013,0.0124,0.0115,0.0102,0.0088,0.0091,0.0057,0.0056,0.0026,0.002,0.0023,0.0012,0.0035,-0.0015,-0.002,-0.0025,-0.0041,-0.0048,0.0033,0.0033,0.0033,0.0033,0,0.0188,0.0186,0.0186,0.0168,0.0162,0.0157,0.0136,0.0127,0.0114,0.0096,0.0067,0.0051,0.0028,0.0022,0.0022,-0.0017,-0.0011,-0.0015,-0.0008,-0.0032,-0.0047,-0.0054,0.0032,0.0032,0.0032,0.0032,0,0,0.0209,0.0194,0.0192,0.0183,0.0164,0.0159,0.0147,0.0121,0.0103,0.0085,0.0055,0.003,0.0011,0.0002,-0.0013,-0.0042,-0.0084,-0.0039,-0.004,-0.0054,-0.015,-0.0125,-0.013,-0.0095,-0.0097,-0.0098,-0.0144,0,0.0211,0.0208,0.0196,0.0189,0.018,0.016,0.0149,0.0127,0.0104,0.0076,0.0039,0.0014,0.0006,-0.0007,-0.0042,-0.0071,-0.0103,-0.007,-0.0126,-0.0127,-0.0102,-0.0138,-0.0102,-0.0149,-0.015,-0.0152,-0.0152,0,0.0205,0.0206,0.0204,0.0187,0.0181,0.0179,0.0147,0.0135,0.0092,0.0073,0.0032,0.0005,-0.0041,-0.0043,-0.0117,-0.0093,-0.0123,-0.0147,-0.015,-0.0128,-0.0116,-0.0123,-0.0165,-0.0164,-0.0163,-0.0162,-0.0161,0,0.021,0.0201,0.0203,0.0199,0.0187,0.018,0.017,0.0134,0.0122,0.007,0.0056,-0.0011,-0.0031,-0.0091,-0.0135,-0.0129,-0.021,-0.0211,-0.0222,-0.0219,-0.0221,-0.0215,-0.0274,-0.0274,-0.0274,-0.0274,-0.0274,0,0.0204,0.0203,0.021,0.0212,0.0212,0.0195,0.0185,0.016,0.013,0.0117,0.006,0.0036,-0.0044,-0.0095,-0.0143,-0.0198,-0.0221,-0.0232,-0.0237,-0.0223,-0.0217,-0.0225,-0.0219,-0.0276,-0.0275,-0.0275,-0.0275,0,0.0208,0.0208,0.0217,0.0218,0.0216,0.0221,0.0213,0.0203,0.0172,0.0154,0.0143,0.0071,0.0004,-0.0074,-0.0166,-0.0196,-0.026,-0.0275,-0.0244,-0.0245,-0.0243,-0.0237,-0.0299,-0.0298,-0.0298,-0.0298,-0.0298,0,0.0211,0.0219,0.0237,0.0245,0.0249,0.0254,0.0255,0.023,0.0224,0.0181,0.0175,0.0103,0.0053,-0.0062,-0.0145,-0.0248,-0.0258,-0.0285,-0.0279,-0.025,-0.025,-0.0244,-0.0238,-0.0297,-0.0297,-0.0297,-0.0297,0,0.0225,0.0239,0.0251,0.0271,0.0282,0.029,0.029,0.0291,0.0266,0.0246,0.0199,0.0128,0.0052,-0.005,-0.013,-0.0202,-0.0268,-0.0283,-0.0284,-0.0279,-0.0249,-0.0247,-0.0242,-0.0296,-0.0296,-0.0297,-0.0297,0,0.0245,0.0257,0.0274,0.0285,0.03,0.0306,0.0313,0.0303,0.0291,0.0249,0.0239,0.0144,0.0088,-0.0025,-0.0098,-0.017,-0.0187,-0.0202,-0.0207,-0.0209,-0.0168,-0.0116,-0.0136,0,0,0,0,0,0.0258,0.0259,0.0277,0.0286,0.0306,0.0304,0.0318,0.0324,0.0313,0.0289,0.0262,0.019,0.0071,0.0009,-0.0059,-0.0095,-0.02,-0.0176,-0.0219,-0.0291,-0.0292,-0.0257,0,0,0,0,0,0,0.026,0.0278,0.0273,0.0279,0.0283,0.0297,0.0304,0.0307,0.029,0.0274,0.0206,0.0178,0.0054,0.0102,-0.0064,-0.0086,-0.0119,-0.0235,-0.0236,-0.0291,-0.0292,-0.0292,-0.0256,0,0,0,0,0]}]]